Regional Weather Roundup
Issued by NWS

Home | Current Version | Previous Version | Text Only | Print | Product List | Glossary On
Versions: 1 2 3 4 5 6 7 8 9 10 11 12 13 14 15 16 17 18 19 20 21 22 23 24 25 26 27 28 29 30 31 32 33 34 35 36 37 38 39 40 41 42 43 44 45 46 47 48 49 50
000
ASUS43 KDTX 281101
RWRMI
MICHIGAN HOURLY REGIONAL WEATHER ROUNDUP
NATIONAL WEATHER SERVICE DETROIT/PONTIAC MI
700 AM EDT THU APR 28 2016

NOTE: "FAIR" INDICATES FEW OR NO CLOUDS BELOW 12,000 FEET WITH NO
SIGNIFICANT WEATHER AND/OR OBSTRUCTION TO VISIBILITY.

MIZ047>049-052>055-059>063-066>070-074>076-081>083-281200-
SOUTHEAST LOWER MICHIGAN

CITY           SKY/WX    TMP DP  RH WIND       PRES   REMARKS
ADRIAN         RAIN      41  32  70 E13       29.93R
ALMA           CLOUDY    39  22  50 NE6       29.99S WCI  35
ANN ARBOR      LGT RAIN  42  26  53 E9        29.94R
BAD AXE        CLOUDY    38  23  56 NE5       30.03R WCI  34
CARO           CLOUDY    39  20  46 E7        30.00R WCI  34
DETROIT CITY   CLOUDY    42  25  50 NE9       29.98R
DETROIT        CLOUDY    44  27  51 NE12G20   29.96R
FLINT          CLOUDY    42  23  46 E13       29.98S
GROSSE ILE     CLOUDY    45  30  57 NE12G18   29.94R
HILLSDALE      LGT RAIN  39  30  68 E9        29.90R WCI  33
HOWELL         CLOUDY    41  20  43 NE8       29.95R

CITY           SKY/WX    TMP DP  RH WIND       PRES   REMARKS
JACKSON        LGT RAIN  40  32  73 E7        29.92R
LAMBERTVILLE   MIX PCPN  45  38  78 E6        29.93R
LANSING        LGT RAIN  39  23  52 NE9       29.96R WCI  33
LAPEER         MOCLDY    39  23  53 E7        30.00R WCI  34
MASON          LGT RAIN  40  21  46 NE7       29.94S
MONROE         LGT RAIN  43  33  68 NE8G17    29.94R
MT. CLEMENS    CLOUDY    42  24  48 NE14      29.97R
PONTIAC        CLOUDY    40  24  53 E10       29.96R WCI  33
PORT HOPE        N/A     39  32  76 NE9       30.03S WCI  33
PORT HURON     CLOUDY    39  25  56 NE9       29.99S WCI  33
TRI CITIES     CLOUDY    43  23  45 E9        30.01R
MIDLAND        CLOUDY    40  31  69 NE5       30.01S
TROY           CLOUDY    42  27  55 NE9       29.99R
SAGINAW HB     CLOUDY    39  27  60 NE8       30.00S WCI  34
$$
MIZ043>046-050>051-056>058-064>065-071>073-077>080-281200-
SOUTHWEST LOWER MICHIGAN

CITY           SKY/WX    TMP DP  RH WIND       PRES   REMARKS
BATTLE CREEK   LGT RAIN  44  23  43 E9        29.93R
BENTON HARBOR  LGT RAIN  44  38  79 E5        29.88R
BIG RAPIDS     CLOUDY    41  11  29 E8        29.98R
COLDWATER      MIX PCPN  40  34  80 NE8       29.92R WCI  34
FREMONT        LGT RAIN  41  19  41 E12G18    29.95R
HOLLAND        LGT RAIN  42  26  53 E14       29.90F
GRAND RAPIDS   LGT RAIN  41  21  44 E16       29.95R
IONIA          CLOUDY    38  18  44 E10G20    29.96R WCI  31
KALAMAZOO      LGT RAIN  44  26  49 E9G24     29.91R
LUDINGTON      CLOUDY    43  17  35 E17G24    29.95S
MARSHALL       LGT RAIN  39  29  66 CALM      29.92R
MOUNT PLEASANT CLOUDY    39  29  69 NE9       29.99S WCI  32
MUSKEGON       LGT RAIN  41  24  51 E10       29.95R
$$
MIZ016>042-281200-
NORTHERN LOWER MICHIGAN

CITY           SKY/WX    TMP DP  RH WIND       PRES   REMARKS
ALPENA         CLOUDY    31  28  89 NE5       30.09R WCI  26
BEAVER ISLAND  CLOUDY    37  32  82 E10       30.07R WCI  29
BELLAIRE       MOCLDY    38  25  59 E3        30.04S
CADILLAC       CLOUDY    38  22  51 E10       29.98S WCI  31
CHARLEVOIX     PTCLDY    39  27  60 E12       30.08S WCI  32
FRANKFORT      CLOUDY    42  23  47 E6        30.00R
GAYLORD        CLOUDY    34  25  69 NE9       30.03S WCI  27
GRAYLING       PTCLDY    35  25  68 E9        30.03F WCI  27
HARBOR SPRINGS CLOUDY    37  28  72 E9        30.07R WCI  30
HOUGHTON LAKE  CLOUDY    35  23  61 E9        30.02S WCI  28
MANISTEE       CLOUDY    43  18  36 E12       29.98R
OSCODA         MOCLDY    33  28  83 N6        30.06S WCI  27
PELLSTON       CLOUDY    38  24  57 E9        30.09R WCI  31
ROGERS CITY    CLOUDY    37  28  71 E8        30.11R WCI  31
TRAVERSE CITY  CLOUDY    40  23  50 E3        30.02S
$$
MIZ007>008-015-281200-
EASTERN UPPER MICHIGAN

CITY           SKY/WX    TMP DP  RH WIND       PRES   REMARKS
KINROSS          N/A     36  25  64 E12       30.10R WCI  27
MACKINAC ISLAN CLOUDY    37  27  67 E9        30.08S WCI  31
NEWBERRY       CLOUDY    32  28  86 E5        30.09R WCI  27
S. S. MARIE    CLOUDY    36  22  56 E6        30.11R WCI  31
MUNISING         N/A     30  27  88 S5        30.09R WCI  25
$$
MIZ004>006-011>014-085-281200-
CENTRAL UPPER MICHIGAN

CITY           SKY/WX    TMP DP  RH WIND       PRES   REMARKS
MANISTIQUE     CLOUDY    33  26  74 NE6       30.08R WCI  28
ESCANABA       CLOUDY    36  25  64 NE9       30.07R WCI  29
MENOMINEE      CLOUDY    37  28  70 E17       30.02S WCI  28
SAWYER-GWINN   CLEAR     34  27  75 E9        30.08R WCI  26
$$
MIZ001>003-009>011-084-281200-
WESTERN UPPER MICHIGAN

CITY           SKY/WX    TMP DP  RH WIND       PRES   REMARKS
IRON MOUNTAIN  CLOUDY    38  20  48 NE8       30.03R WCI  32
HOUGHTON       CLOUDY    35  28  75 E8        30.09R WCI  29
COPPER HARBOR    N/A     37  31  78 SE5       30.12R WCI  33
IRONWOOD       CLOUDY    36  12  38 E9        30.01S WCI  29
$$

ABBREVIATIONS USED IN REMARKS
   TC - TEMPERATURE IN CELSIUS
  WCI - WIND CHILL INDEX
   HX - HEAT INDEX
  VSB - VISIBILITY





USA.gov is the U.S. government's official web portal to all federal, state and local government web resources and services.